Location: Gleizolles
(44.4833°N, 6.7667°E)
Time: 14:59:08
(UTC+00:00)

Vanguard 1 - Pass Details

Date: 02 July 2024
Orbit: 650 x 3826 km, 34.3° (Epoch: 22 July)

Event Time Altitude Azimuth Distance (km) Brightness Sun altitude
Rises 08:57:16 0° 242° (WSW) 7,062 14.2 51.0°
Reaches altitude 10° 09:02:54 10° 237° (WSW) 5,570 13.8 51.9°
Maximum altitude 09:16:28 43° 174° (S) 2,359 13.0 54.2°
Drops below altitude 10° 09:24:09 10° 105° (ESE) 3,206 13.4 55.4°
Sets 09:26:30 0° 98° (E) 3,896 13.6 55.7°
